TimeEST,TemperatureF,Dew PointF,Humidity,Sea Level PressureIn,VisibilityMPH,Wind Direction,Wind SpeedMPH,Gust SpeedMPH,PrecipitationIn,Events,Conditions,WindDirDegrees,DateUTC
12:53 AM,25.0,10.9,55,30.40,10.0,North,3.5,-,N/A,,Clear,10,2013-02-10 05:53:00
1:53 AM,21.9,10.9,63,30.42,10.0,Calm,Calm,-,N/A,,Clear,0,2013-02-10 06:53:00
2:53 AM,19.9,12.0,71,30.43,10.0,Calm,Calm,-,N/A,,Clear,0,2013-02-10 07:53:00
3:53 AM,19.9,10.9,68,30.42,10.0,Calm,Calm,-,N/A,,Clear,0,2013-02-10 08:53:00
4:53 AM,18.0,9.0,68,30.42,10.0,North,3.5,-,N/A,,Clear,10,2013-02-10 09:53:00
5:53 AM,18.0,9.0,68,30.43,10.0,Calm,Calm,-,N/A,,Clear,0,2013-02-10 10:53:00
6:53 AM,18.0,9.0,68,30.45,10.0,Calm,Calm,-,N/A,,Clear,0,2013-02-10 11:53:00
8:53 AM,23.0,12.9,65,30.49,10.0,Calm,Calm,-,N/A,,Clear,0,2013-02-10 13:53:00
9:53 AM,25.0,14.0,63,30.49,10.0,ESE,3.5,-,N/A,,Clear,110,2013-02-10 14:53:00
10:53 AM,28.0,14.0,56,30.47,10.0,ESE,4.6,-,N/A,,Clear,110,2013-02-10 15:53:00
11:53 AM,30.0,12.0,47,30.44,10.0,Calm,Calm,-,N/A,,Clear,0,2013-02-10 16:53:00
12:53 PM,35.1,10.0,35,30.42,10.0,Variable,3.5,-,N/A,,Clear,0,2013-02-10 17:53:00
1:53 PM,37.0,12.0,36,30.39,10.0,East,5.8,-,N/A,,Clear,80,2013-02-10 18:53:00
2:53 PM,39.0,12.9,34,30.38,10.0,SE,8.1,-,N/A,,Clear,140,2013-02-10 19:53:00
3:53 PM,39.0,15.1,38,30.34,10.0,SE,9.2,-,N/A,,Clear,130,2013-02-10 20:53:00
4:53 PM,37.9,12.0,35,30.34,10.0,SSE,9.2,-,N/A,,Clear,150,2013-02-10 21:53:00
5:53 PM,35.1,14.0,42,30.35,10.0,SSE,6.9,-,N/A,,Clear,150,2013-02-10 22:53:00
6:53 PM,35.1,15.1,44,30.33,10.0,SSE,4.6,-,N/A,,Clear,160,2013-02-10 23:53:00
7:53 PM,35.1,15.1,44,30.34,10.0,SSE,5.8,-,N/A,,Clear,160,2013-02-11 00:53:00
8:53 PM,35.1,16.0,46,30.33,10.0,SSE,9.2,-,N/A,,Clear,150,2013-02-11 01:53:00
9:53 PM,34.0,18.0,52,30.29,10.0,SE,10.4,-,N/A,,Clear,140,2013-02-11 02:53:00
10:53 PM,34.0,19.0,54,30.30,10.0,SSE,8.1,-,N/A,,Clear,160,2013-02-11 03:53:00
11:53 PM,33.1,21.9,64,30.27,10.0,SE,9.2,-,N/A,,Scattered Clouds,140,2013-02-11 04:53:00